FW4468 Weather Reports


time (UTC)temp
C
wind
direction
speed
KPH
gust
KPH
rain 1hr
cm
rain 24hr
cm
rain mn
cm
humidity
%
barometer
mb
20260903124540 12 168 4.8 14.5 0.00 0.61 0.08 70 1007.0
20260903123036 12 61 1.6 4.8 0.00 0.61 0.08 70 1006.9
20260903121533 12 55 0.0 3.2 0.00 0.61 0.08 71 1006.9
20260903120033 12 94 1.6 8.0 0.03 0.61 0.08 71 1006.8
20260903114531 12 69 0.0 8.0 0.05 0.61 0.08 71 1006.7
20260903113030 12 76 0.0 4.8 0.05 0.61 0.08 70 1006.7
20260903111548 12 36 0.0 4.8 0.08 0.61 0.08 70 1006.6
20260903110026 12 84 0.0 3.2 0.05 0.58 0.05 69 1006.7
20260903104633 12 42 0.0 12.9 0.03 0.56 0.03 68 1006.7
20260903103024 13 213 0.0 9.7 0.03 0.56 0.03 67 1006.7
20260903101521 13 130 0.0 12.9 0.00 0.53 0.00 66 1006.5
20260903100022 13 110 1.6 6.4 0.00 0.53 0.00 66 1006.3
20260903094520 13 131 0.0 4.8 0.00 0.53 0.00 66 1006.2
20260903093031 13 187 0.0 11.3 0.00 0.53 0.00 66 1006.3
20260903091529 13 38 0.0 9.7 0.00 0.53 0.00 66 1006.3
20260903090016 13 107 0.0 9.7 0.00 0.53 0.00 66 1006.3
20260903084512 13 150 0.0 8.0 0.00 0.53 0.00 66 1006.2
20260903083010 12 173 0.0 8.0 0.00 0.53 0.00 67 1006.2
20260903081509 12 71 0.0 4.8 0.00 0.53 0.00 68 1006.1
20260903080007 12 121 0.0 8.0 0.00 0.53 0.00 67 1006.2
20260903074506 12 41 1.6 6.4 0.00 0.53 0.00 67 1006.0
20260903073014 12 127 1.6 4.8 0.00 0.53 0.00 68 1005.9
20260903071503 12 192 0.0 6.4 0.00 0.53 0.00 67 1006.0
20260903070001 12 32 0.0 6.4 0.00 0.53 0.53 67 1005.9
20260903064501 12 153 1.6 9.7 0.00 0.53 0.53 67 1005.9
20260903063059 12 123 0.0 3.2 0.00 0.53 0.53 67 1005.9
20260903061604 13 181 0.0 4.8 0.00 0.53 0.53 67 1006.1
20260903060057 13 188 0.0 6.4 0.00 0.53 0.53 66 1006.0
20260903054555 13 238 0.0 6.4 0.00 0.53 0.53 66 1006.0
20260903053107 13 52 3.2 11.3 0.00 0.53 0.53 67 1006.0
20260903051553 13 262 0.0 9.7 0.00 0.53 0.53 67 1005.8
20260903050051 13 118 1.6 17.7 0.00 0.53 0.53 67 1005.7
20260903044555 13 152 1.6 12.9 0.00 0.53 0.53 67 1005.5
20260903043049 13 240 0.0 6.4 0.00 0.53 0.53 67 1005.2
20260903041548 13 17 0.0 11.3 0.00 0.53 0.53 68 1005.3
20260903040047 13 74 0.0 11.3 0.00 0.53 0.53 68 1005.2
20260903034546 13 298 1.6 8.0 0.00 0.53 0.53 68 1005.0
20260903033050 13 70 0.0 14.5 0.00 0.53 0.53 68 1004.9
20260903031550 13 101 3.2 16.1 0.00 0.53 0.53 68 1004.6
20260903030107 13 151 6.4 17.7 0.00 0.53 0.53 68 1004.5
20260903024543 13 209 3.2 12.9 0.00 0.53 0.53 68 1004.0
20260903023042 14 204 1.6 16.1 0.00 0.53 0.53 67 1003.9
20260903021540 14 119 1.6 16.1 0.00 0.53 0.53 66 1003.7
20260903020040 14 197 4.8 14.5 0.00 0.53 0.53 65 1003.5
20260903014539 15 179 9.7 22.5 0.00 0.53 0.53 65 1003.5
20260903013044 15 211 4.8 22.5 0.00 0.53 0.53 66 1003.3
20260903011540 15 107 9.7 25.7 0.00 0.53 0.53 65 1003.0
20260903010039 15 208 8.0 27.4 0.00 0.53 0.53 67 1002.8
20260903004536 15 148 3.2 16.1 0.00 0.53 0.53 78 1002.8
20260903003039 14 59 0.0 19.3 0.00 0.53 0.53 75 1002.8
20260903001532 14 56 1.6 12.9 0.00 0.53 0.53 75 1002.5
20260903000031 13 164 1.6 25.7 0.05 0.53 0.53 75 1002.7
20260902234530 13 199 1.6 14.5 0.13 0.53 0.53 74 1002.6
20260902233029 13 73 3.2 12.9 0.20 0.53 0.53 72 1002.6
20260902231531 13 5 1.6 17.7 0.25 0.53 0.53 71 1002.9
20260902230024 14 119 1.6 19.3 0.25 0.48 0.48 70 1003.2
20260902224542 14 132 1.6 9.7 0.15 0.38 0.38 70 1003.4
20260902223021 14 159 0.0 6.4 0.13 0.30 0.30 69 1003.4
20260902221524 15 200 0.0 4.8 0.13 0.28 0.28 69 1003.6
20260902220043 15 219 0.0 4.8 0.10 0.23 0.23 68 1003.5
20260902214518 15 275 0.0 14.5 0.08 0.20 0.20 68 1003.7
20260902213017 15 158 0.0 12.9 0.05 0.18 0.18 67 1003.8
20260902211517 16 205 4.8 17.7 0.03 0.15 0.15 65 1003.8
20260902210021 16 262 4.8 14.5 0.00 0.13 0.13 65 1003.7
20260902204522 16 251 3.2 17.7 0.00 0.13 0.13 66 1003.7
20260902203015 16 219 1.6 17.7 0.03 0.13 0.13 65 1003.6
20260902201534 17 227 3.2 11.3 0.13 0.13 0.13 66 1003.6
20260902200015 17 234 0.0 4.8 0.13 0.13 0.13 69 1003.7
20260902194527 16 180 0.0 11.3 0.13 0.13 0.13 68 1003.8
20260902193113 17 238 6.4 19.3 0.10 0.10 0.10 62 1004.2
20260902191511 18 167 3.2 12.9 0.00 0.00 0.00 53 1003.7
20260902190013 19 150 0.0 16.1 0.00 0.00 0.00 52 1003.8
20260902184514 19 144 3.2 16.1 0.00 0.00 0.00 53 1003.9
20260902183004 17 169 1.6 9.7 0.00 0.00 0.00 60 1004.1
20260902181501 17 159 1.6 9.7 0.00 0.00 0.00 61 1004.4
20260902180104 16 165 1.6 9.7 0.00 0.00 0.00 62 1004.4
20260902174558 17 205 0.0 8.0 0.00 0.00 0.00 62 1004.6
20260902173108 16 178 1.6 11.3 0.00 0.00 0.00 63 1004.7
20260902171559 16 163 0.0 12.9 0.00 0.00 0.00 62 1004.8
20260902170054 16 156 3.2 8.0 0.00 0.00 0.00 62 1004.8
20260902164601 16 195 0.0 9.7 0.00 0.00 0.00 63 1005.1
20260902163100 16 212 0.0 4.8 0.00 0.00 0.00 63 1005.0
20260902161552 16 163 0.0 11.3 0.00 0.00 0.00 63 1005.2
20260902160057 16 204 1.6 6.4 0.00 0.00 0.00 62 1005.3
20260902154550 16 182 3.2 11.3 0.00 0.00 0.00 62 1005.3
20260902153053 16 182 3.2 14.5 0.00 0.00 0.00 62 1005.3
20260902151545 16 271 4.8 14.5 0.00 0.00 0.00 63 1005.6
20260902150040 15 114 0.0 16.1 0.00 0.00 0.00 65 1005.8
20260902144540 15 192 1.6 12.9 0.00 0.00 0.00 65 1006.0
20260902143038 15 95 1.6 17.7 0.00 0.00 0.00 66 1006.1
20260902141537 15 111 0.0 11.3 0.00 0.00 0.00 66 1006.1
20260902140035 15 171 0.0 17.7 0.00 0.00 0.00 66 1006.1
20260902134542 15 242 1.6 17.7 0.00 0.00 0.00 66 1006.3
20260902133035 15 161 1.6 22.5 0.00 0.00 0.00 66 1006.1
20260902131540 15 158 3.2 17.7 0.00 0.00 0.00 65 1006.3
20260902130033 15 162 0.0 11.3 0.00 0.00 0.00 66 1006.4